Temperature
13 13 14 15 15 16 17 19 21 22 22 23 23 23 22 20 20 18 17 17 17 17 17 17 16 16 16 16 16 16 16 16 16 16 16 16 16 16 16 16 16 16 16 16 16 16 16 16 16
13 13 14 15 15 16 17 19 20 21 21 21 21 22 21 19 17 17 16 16 16 16 17 16 16 16 16 16 16 16 16 16 16 16 16 16 16 16 15 16 16 16 16 15 15 15 15 15 15
12 13 14 15 15 16 18 19 20 20 20 20 20 20 19 17 16 16 16 16 16 16 16 16 16 16 16 16 16 16 16 16 16 16 16 16 16 16 15 15 16 15 15 15 15 15 15 15 15
12 13 14 14 15 17 18 19 19 19 19 20 19 18 17 16 16 15 15 15 15 15 16 16 16 16 16 16 16 16 16 16 16 16 16 15 15 15 15 15 15 15 15 15 15 15 15 15 15
12 13 13 14 15 17 18 19 19 18 18 19 18 17 15 15 15 15 15 15 15 15 15 15 15 16 16 16 15 15 15 15 15 15 15 15 15 15 15 15 15 15 15 15 15 15 15 15 15
12 13 13 13 15 17 18 18 18 18 18 18 17 16 14 15 15 15 15 15 15 15 15 15 15 15 15 15 15 15 15 15 15 15 15 15 15 15 15 15 15 15 15 15 15 15 15 15 15
12 12 13 14 15 16 17 17 17 17 17 17 17 15 14 14 14 14 14 14 14 14 15 15 15 15 15 15 15 15 15 15 15 15 15 15 15 15 15 15 15 15 15 15 15 15 15 15 15
11 12 13 13 14 15 16 16 16 16 16 16 16 15 13 13 13 14 14 14 14 14 14 14 14 15 15 15 15 15 15 15 15 15 15 15 15 15 15 15 15 15 15 15 15 14 14 14 14
11 11 11 13 14 14 15 15 15 15 15 15 15 15 14 13 13 13 13 13 13 14 14 14 14 14 14 14 14 15 15 15 15 14 14 14 14 14 14 15 14 14 14 14 14 14 14 14 14
11 10 12 14 14 14 14 14 14 14 14 14 13 13 13 13 13 13 13 13 13 13 13 14 14 14 14 14 14 14 14 14 14 14 14 14 14 14 14 14 14 14 14 14 14 14 14 14 14
11 11 12 13 13 13 13 13 13 13 13 13 12 12 12 12 12 12 13 13 13 13 13 13 13 13 14 14 14 14 14 14 14 14 14 14 14 14 14 14 14 14 14 14 14 14 13 13 13
12 12 12 12 12 12 12 12 13 13 13 13 12 12 12 12 12 12 12 12 12 12 13 13 13 13 13 13 13 13 13 13 13 13 13 13 14 14 13 13 13 13 13 14 14 13 13 13 13
11 11 12 12 12 12 11 12 12 12 12 12 12 11 11 12 12 12 12 12 12 12 12 12 13 13 13 13 13 13 13 13 13 13 13 13 13 13 13 13 13 13 13 13 13 13 13 13 13
12 12 12 12 12 12 12 12 12 12 12 12 11 11 11 11 11 11 11 11 12 12 12 12 12 13 13 13 13 13 13 13 13 13 13 13 13 13 13 13 13 13 13 13 13 13 12 12 12
12 11 12 12 12 12 12 11 11 11 11 11 11 11 10 11 11 11 11 11 11 12 12 12 12 12 12 12 13 13 13 12 12 12 12 13 13 13 13 13 13 13 13 13 13 12 12 12 12
12 11 11 12 12 12 11 10 11 12 11 11 11 11 10 10 10 10 10 11 11 11 11 11 12 12 12 12 12 12 12 12 12 12 12 12 12 12 12 12 12 12 12 12 12 12 12 12 11
11 11 11 12 13 12 11 10 12 11 11 11 11 11 10 10 10 10 10 10 11 11 11 11 11 12 12 12 12 12 12 12 12 12 12 12 12 12 12 12 12 12 12 12 12 12 12 11 11
10 11 11 12 12 12 11 11 11 12 12 11 11 10 10 10 10 10 10 10 10 11 11 11 11 11 11 11 11 11 11 11 11 11 11 11 11 11 11 11 11 11 11 11 11 11 11 11 11
11 11 11 12 13 12 11 11 12 12 12 12 11 10 10 10 10 10 10 10 10 10 10 11 11 11 11 11 11 11 11 11 11 11 11 11 11 11 11 11 11 11 11 11 10 11 11 10 10
12 11 11 12 12 12 12 12 12 12 12 12 11 11 10 10 10 9 9 10 10 10 10 10 10 11 11 10 10 10 10 10 10 10 10 10 10 10 10 10 10 10 10 10 10 10 10 10 9
12 11 10 11 11 12 12 11 12 12 12 12 11 11 11 10 10 10 9 9 10 10 10 10 10 10 10 10 10 10 10 10 10 10 10 10 10 10 10 10 10 10 10 10 10 9 9 9 9
11 11 11 11 10 10 12 10 12 12 11 12 12 11 11 11 10 10 9 9 10 10 10 10 10 10 10 10 10 10 10 10 10 10 10 10 9 9 9 9 9 10 9 9 9 9 9 9 9
10 11 11 11 10 10 11 11 11 12 11 11 11 11 11 11 10 10 10 9 10 10 10 10 10 10 10 10 9 9 9 9 9 9 9 9 9 9 9 9 9 9 9 9 9 9 9 8 8
11 11 11 11 10 10 11 10 11 11 11 12 12 12 11 11 10 10 9 9 9 9 9 9 9 9 9 9 9 9 9 9 9 9 9 9 9 9 9 9 9 9 8 8 8 8 8 8 8
11 10 9 9 9 10 11 10 10 12 12 12 12 12 11 11 10 10 9 9 9 9 9 9 9 9 9 9 9 9 9 9 9 9 8 8 8 8 8 8 8 8 8 8 8 8 8 7 7
10 10 9 9 9 10 10 10 10 12 12 12 12 11 11 10 10 9 9 9 9 9 9 9 9 9 9 9 9 9 9 9 9 8 8 8 8 8 8 8 8 8 7 7 7 7 7 7 7
10 10 11 9 10 10 10 11 11 12 11 11 11 11 11 10 10 9 9 9 9 9 9 9 9 9 9 9 8 8 8 8 8 8 8 8 8 8 7 7 7 7 7 7 7 7 7 6 6
10 10 9 9 9 10 11 11 10 10 10 10 11 11 11 10 10 9 9 9 9 9 9 9 9 9 9 8 8 8 8 8 8 8 7 7 7 7 7 7 7 7 7 7 6 6 6 6 6
10 10 10 10 10 9 10 10 11 11 11 10 11 11 11 10 10 9 9 9 9 9 9 9 9 8 8 8 8 8 8 8 8 7 7 7 7 7 7 7 7 7 6 6 6 6 5 5 5
10 10 10 9 9 10 9 9 12 11 11 11 11 11 10 10 10 9 9 9 9 9 9 9 8 8 8 8 8 8 7 7 7 7 7 7 7 7 7 6 6 6 6 6 5 5 5 5 5
Wind_Speed
15 13 6 3 3 6 12 10 9 5 5 3 3 2 1 2 3 6 4 8 11 13 15 16 15 14 13 13 13 13 12 11 10 10 9 9 9 8 8 8 9 8 7 8 8 8 8 8 7
13 9 4 3 5 9 10 9 9 5 2 3 4 3 2 4 7 6 3 8 10 12 14 15 16 14 14 13 13 13 12 11 10 10 10 9 9 8 8 8 8 7 7 7 7 7 7 7 7
11 8 3 4 6 11 8 4 3 2 1 0 1 3 3 4 5 3 4 6 9 10 13 14 16 15 14 13 13 13 12 11 10 10 10 9 9 8 8 8 8 8 7 7 7 7 7 6 6
5 3 3 6 12 10 9 6 2 2 1 1 2 3 3 5 3 4 4 6 8 10 13 14 15 15 14 13 13 12 12 11 10 10 9 9 8 8 8 8 8 8 7 6 6 6 6 5 5
3 3 5 8 12 9 7 7 4 3 1 0 1 1 2 3 7 6 4 6 9 10 12 14 15 15 14 14 13 12 12 11 10 10 9 9 8 8 8 7 7 7 7 6 5 5 5 4 4
3 3 5 8 10 9 7 5 4 4 2 1 1 1 1 3 6 5 4 6 8 9 11 13 15 15 15 14 13 13 12 11 10 10 9 9 8 8 8 7 6 6 6 5 4 4 4 3 3
3 3 7 8 9 8 6 4 4 4 3 2 1 0 2 3 4 4 4 6 7 9 10 11 13 15 15 14 13 13 12 11 10 9 9 9 9 9 8 7 6 5 5 5 4 4 3 2 2
3 3 6 8 10 8 5 4 3 4 4 1 1 2 3 3 3 4 5 6 6 7 7 9 11 12 13 13 13 12 12 11 10 9 8 7 8 8 7 7 6 5 5 4 4 3 2 2 2
3 3 5 7 8 7 6 4 3 4 2 2 3 2 4 7 5 5 6 5 5 6 6 7 8 9 11 11 11 11 10 9 9 8 7 6 6 6 6 6 5 4 3 2 2 1 2 3 3
2 4 7 6 6 6 7 5 3 2 2 2 2 3 8 7 6 6 7 6 5 5 5 6 7 7 8 8 9 8 8 7 7 6 5 4 5 5 5 5 4 2 1 1 1 2 3 3 1
3 4 6 7 6 6 6 6 3 3 4 3 0 3 6 6 6 6 6 6 6 5 5 5 6 7 7 6 7 6 6 6 7 6 5 5 5 5 6 4 3 2 2 2 3 3 3 3 2
4 5 6 6 5 4 5 5 3 3 4 2 2 4 6 6 6 6 7 6 6 6 5 5 6 6 6 7 6 6 5 5 6 6 6 5 4 4 4 4 4 4 4 3 3 3 3 4 4
5 6 7 5 4 3 4 5 5 5 4 2 3 4 6 6 5 5 6 7 7 6 5 5 5 6 6 6 5 6 5 6 7 7 8 7 5 3 4 4 5 5 5 4 3 3 3 3 4
4 5 6 5 4 3 3 5 4 4 2 1 4 6 5 6 7 7 7 7 6 7 5 4 5 6 6 5 5 5 6 6 7 7 8 8 7 5 4 4 4 5 5 6 5 4 3 2 3
6 6 5 4 3 2 3 3 4 3 1 1 4 6 6 7 7 7 7 7 7 7 6 6 6 6 6 6 6 6 6 7 6 6 8 8 8 7 5 3 3 5 6 6 5 4 3 2 2
5 4 3 2 2 3 3 4 3 1 2 2 4 5 7 7 7 7 6 7 7 8 7 6 6 7 7 7 6 6 7 7 6 6 7 8 9 7 5 3 3 6 7 5 2 2 3 3 3
2 2 2 2 2 2 3 3 2 2 3 4 4 5 7 7 7 6 6 7 7 8 7 6 6 7 7 7 6 6 7 6 6 7 7 7 8 7 6 4 4 6 5 4 3 3 3 3 3
4 3 2 2 2 3 3 3 1 3 3 5 6 6 7 7 6 7 7 7 7 7 7 7 6 6 6 5 4 4 5 4 6 6 7 7 7 7 6 4 6 6 3 4 4 4 3 2 3
6 4 4 2 0 3 4 4 3 3 3 5 6 6 7 6 6 7 7 7 7 7 7 6 6 5 4 3 3 3 3 3 3 4 6 6 6 6 6 4 4 4 3 3 4 3 3 3 3
5 4 4 2 2 2 2 2 3 4 4 5 6 7 7 7 7 7 6 6 6 6 6 5 5 5 4 3 2 2 3 2 3 3 4 5 5 5 5 4 3 3 3 4 4 3 3 2 3
3 2 4 4 3 3 2 2 4 5 4 4 4 6 7 8 8 7 6 6 6 5 5 5 5 5 5 4 3 3 2 1 2 2 2 2 2 3 4 4 3 3 2 2 3 3 3 2 2
3 4 4 4 3 2 1 1 3 6 5 5 5 6 7 7 8 7 7 6 6 6 5 5 5 5 4 4 3 2 2 1 1 2 2 2 2 2 2 2 3 2 2 2 2 2 2 2 2
4 5 5 4 3 2 2 1 2 6 5 6 6 6 6 7 8 8 7 6 6 6 5 4 5 5 4 3 2 2 1 1 1 1 2 2 2 1 1 1 2 2 1 2 2 2 1 1 1
6 5 5 3 1 2 1 1 1 2 4 6 7 6 7 7 8 8 7 7 5 6 5 5 5 4 4 3 3 2 3 2 2 2 2 2 2 1 1 1 0 1 1 1 1 1 1 1 1
4 3 2 2 0 2 1 1 2 1 3 5 6 6 6 6 6 7 8 7 6 6 6 5 5 5 4 4 3 3 3 3 3 2 2 2 1 2 2 1 1 0 0 1 1 1 1 1 1
4 2 1 1 2 1 1 2 2 4 5 5 6 7 7 6 6 6 7 7 7 7 6 6 5 5 5 4 4 3 3 2 2 2 2 2 2 2 2 2 2 1 1 1 1 1 2 1 1
4 1 1 1 3 2 2 3 2 4 5 4 5 7 7 6 6 6 6 6 6 6 6 6 5 4 4 4 4 4 3 3 3 2 2 2 2 2 2 2 2 2 2 2 2 2 2 2 2
3 4 2 1 2 3 3 2 3 4 5 5 5 5 6 6 6 6 5 5 5 5 5 5 5 4 4 4 4 3 4 4 3 3 3 3 3 2 3 3 3 3 3 2 2 2 2 2 2
1 2 2 2 1 1 2 2 1 4 4 5 5 5 6 5 5 5 5 5 5 5 5 4 4 4 3 3 3 3 4 4 4 4 4 4 3 3 4 4 4 4 4 3 3 4 3 3 3
2 2 1 1 3 2 2 4 1 4 4 4 4 4 5 5 5 5 5 5 5 5 5 5 5 4 4 3 3 3 3 3 4 4 4 4 4 4 4 4 4 4 4 4 4 4 4 4 4
Wind_Direction
309 290 272 263 239 230 239 241 254 255 258 288 342 327 5 356 22 114 128 103 111 124 131 135 134 132 129 128 127 123 119 117 117 114 111 107 103 98 93 91 87 90 91 91 88 86 84 80 77
301 297 279 243 233 230 238 234 248 257 281 351 8 5 34 71 61 88 87 101 114 124 130 133 131 129 127 125 124 122 120 118 117 113 109 106 103 100 95 90 85 82 86 91 90 85 82 82 79
283 280 262 233 232 235 246 249 251 310 17 254 28 13 17 65 77 77 78 103 114 120 124 128 129 127 125 123 122 122 121 119 118 113 109 105 101 98 90 84 80 76 80 89 91 87 83 79 76
285 254 246 243 240 245 265 282 345 315 352 24 85 69 40 39 55 85 91 103 112 117 119 126 126 126 125 124 123 123 122 119 116 112 107 105 102 99 91 83 79 73 73 83 88 86 86 81 71
259 256 234 242 249 257 267 283 320 291 231 267 113 110 38 35 69 79 88 101 105 113 116 127 124 121 122 123 121 120 118 116 112 110 107 106 103 98 91 84 80 75 71 76 83 84 81 80 67
258 251 238 242 252 257 270 294 306 291 263 264 323 77 94 86 78 76 70 90 100 109 115 123 123 119 115 114 115 113 113 112 110 109 108 109 104 97 92 85 79 71 65 68 79 78 69 63 53
274 264 249 258 261 260 260 294 285 281 266 232 237 108 142 121 89 90 75 80 96 106 119 120 121 118 113 109 110 109 108 109 107 106 106 107 105 101 95 87 75 67 60 65 69 58 53 44 26
286 284 259 258 266 271 276 280 292 295 263 291 256 168 174 145 109 98 83 76 87 97 108 120 120 121 116 110 109 107 106 108 107 104 106 111 115 111 101 90 79 68 58 63 67 48 24 1 319
275 255 252 257 269 285 311 304 316 319 296 310 324 303 137 129 124 105 97 87 90 95 101 114 111 109 114 117 115 111 110 108 108 106 107 114 110 104 101 96 90 75 58 59 64 9 313 301 285
241 246 253 271 289 303 315 317 329 312 295 308 13 62 117 135 138 131 127 124 114 111 109 116 114 111 112 115 116 110 106 102 92 87 86 88 90 96 101 112 112 93 39 30 327 306 289 297 309
225 256 278 288 311 317 308 311 314 274 268 269 204 144 140 140 145 147 133 130 127 118 107 109 115 110 107 106 106 100 100 96 83 73 59 66 77 81 82 88 75 31 30 18 341 331 330 337 337
246 269 274 287 324 330 308 301 295 273 287 294 185 168 158 159 161 148 134 126 119 113 112 109 105 104 92 93 95 92 83 81 75 63 51 55 57 56 50 54 38 29 14 359 345 325 342 343 3
247 259 268 282 292 301 301 287 283 282 316 345 140 156 160 157 146 132 127 121 118 116 110 110 109 107 99 93 92 85 74 73 76 65 50 49 53 45 33 38 34 26 10 359 346 354 6 2 8
261 266 266 272 271 258 274 289 280 283 336 60 133 146 144 134 126 117 119 117 113 106 104 105 102 102 102 96 92 84 80 79 77 66 56 50 52 48 36 32 25 19 9 356 358 8 10 8 11
262 266 267 258 253 241 249 268 260 272 48 109 131 137 132 123 120 118 119 117 113 107 98 91 97 93 94 90 87 84 81 79 72 66 59 52 50 46 41 33 26 10 1 3 4 3 6 10 16
246 247 260 237 216 224 233 255 253 222 154 141 127 130 126 117 118 114 116 116 111 107 100 95 99 93 85 80 77 79 77 75 69 65 59 53 48 43 41 33 25 12 4 4 358 13 10 5 10
254 267 262 243 201 197 220 251 251 148 159 154 140 133 128 120 117 115 115 111 108 108 106 99 95 94 89 86 83 82 81 75 72 65 58 50 44 38 44 36 25 15 11 2 2 23 10 356 359
300 298 283 272 206 200 206 239 194 164 170 159 142 138 131 124 128 124 114 109 106 108 111 108 102 102 102 98 93 87 80 77 75 67 57 48 41 34 37 41 29 16 19 9 8 13 11 355 352
288 299 302 295 252 220 210 218 191 170 164 151 140 140 136 130 123 117 116 116 112 109 108 112 112 107 108 107 103 101 94 85 75 71 64 52 41 31 33 32 32 23 24 14 7 11 10 6 357
288 305 316 326 323 259 224 193 165 161 162 149 147 147 144 134 128 125 124 125 120 118 116 117 117 111 102 102 104 104 107 104 104 90 73 58 48 32 25 25 28 22 18 18 13 16 6 353 15
306 312 310 315 303 237 219 180 172 149 136 139 152 146 143 146 145 142 142 135 129 126 127 129 119 113 106 98 97 94 88 89 96 106 99 72 67 54 35 22 26 15 22 23 6 17 21 351 350
313 352 324 308 315 287 228 205 190 154 153 163 166 151 147 145 144 145 145 142 140 136 133 131 121 113 110 110 115 120 130 141 153 147 147 139 114 87 49 24 26 18 15 8 352 35 13 3 340
301 309 290 275 288 303 273 230 222 154 165 177 167 157 149 147 145 144 146 146 140 136 138 132 121 116 117 126 140 145 136 138 136 148 153 153 144 145 109 36 22 16 16 12 6 15 11 357 345
292 283 262 241 276 301 253 198 262 170 180 169 162 158 150 147 143 143 143 139 136 137 139 138 137 140 149 162 169 170 163 160 165 184 173 181 179 180 171 176 324 347 14 1 346 334 343 333 327
308 341 8 8 279 251 166 171 246 107 112 139 150 149 141 141 142 147 151 150 150 151 151 157 157 159 166 174 182 184 187 188 194 200 191 198 193 193 197 186 223 255 286 296 317 317 309 294 297
306 334 27 328 304 300 170 214 227 112 96 99 126 138 139 145 151 155 158 157 158 161 162 167 171 172 176 181 188 191 196 198 207 213 205 210 211 202 179 190 217 226 231 270 282 270 264 259 254
324 351 301 289 290 273 234 173 127 117 118 128 136 139 147 151 149 154 154 154 156 162 169 170 172 174 178 186 189 195 201 206 212 222 223 224 220 206 186 201 220 225 221 233 249 257 265 253 238
275 307 323 323 340 315 283 210 190 167 168 162 159 153 149 147 149 151 152 157 159 162 164 163 170 180 180 186 194 198 206 210 211 216 221 222 221 211 208 219 222 224 224 223 229 246 255 253 242
311 313 309 296 254 268 304 284 125 145 151 157 162 155 149 152 153 154 156 159 158 155 157 162 172 178 181 191 202 204 211 206 211 222 223 221 223 219 219 224 223 225 230 227 224 233 237 241 246
292 309 324 329 303 268 258 267 109 113 115 135 143 141 147 150 151 154 158 158 161 165 167 174 180 183 185 188 204 213 211 204 216 226 225 218 222 223 219 221 226 231 232 229 226 234 235 234 240
Height
1502 1503 1505 1507 1508 1506 1499 1489 1481 1481 1481 1482 1483 1484 1486 1491 1494 1504 1504 1503 1503 1504 1507 1511 1513 1516 1518 1520 1522 1524 1525 1527 1528 1529 1530 1531 1532 1533 1533 1534 1535 1536 1536 1537 1537 1538 1538 1538 1539
1501 1504 1506 1506 1506 1505 1494 1485 1484 1482 1482 1483 1484 1485 1487 1493 1496 1499 1501 1502 1503 1505 1507 1510 1513 1516 1518 1520 1522 1524 1526 1527 1528 1529 1530 1531 1532 1533 1534 1535 1535 1536 1537 1537 1538 1538 1538 1539 1539
1502 1504 1506 1503 1500 1496 1489 1483 1482 1483 1483 1484 1486 1487 1491 1496 1498 1499 1501 1502 1504 1505 1508 1510 1513 1516 1518 1521 1523 1524 1526 1527 1529 1530 1531 1532 1533 1533 1534 1535 1536 1536 1537 1537 1538 1538 1539 1539 1539
1504 1505 1504 1502 1495 1489 1486 1483 1482 1483 1484 1485 1487 1490 1494 1498 1499 1500 1501 1503 1504 1506 1508 1511 1513 1516 1518 1521 1523 1524 1526 1527 1529 1530 1531 1532 1533 1534 1534 1535 1536 1536 1537 1537 1538 1538 1539 1539 1540
1504 1504 1503 1499 1493 1488 1485 1484 1485 1484 1485 1487 1488 1491 1495 1498 1499 1500 1502 1503 1504 1506 1508 1511 1514 1516 1519 1521 1523 1524 1526 1528 1529 1530 1531 1532 1533 1534 1534 1535 1536 1536 1537 1537 1538 1538 1539 1539 1539
1504 1501 1502 1499 1493 1488 1485 1485 1486 1486 1486 1488 1490 1492 1496 1498 1499 1500 1502 1503 1504 1506 1508 1511 1514 1516 1518 1520 1523 1524 1526 1528 1529 1530 1531 1532 1533 1533 1534 1535 1536 1536 1536 1537 1537 1538 1538 1539 1539
1504 1501 1499 1496 1493 1489 1486 1487 1487 1487 1487 1489 1491 1494 1496 1498 1499 1500 1501 1503 1504 1506 1508 1511 1513 1516 1518 1520 1522 1524 1526 1527 1529 1530 1531 1532 1533 1533 1534 1535 1536 1536 1536 1537 1537 1538 1538 1538 1539
1503 1502 1498 1495 1493 1490 1487 1487 1487 1488 1488 1489 1491 1492 1495 1497 1499 1500 1501 1502 1504 1506 1508 1511 1513 1515 1518 1520 1522 1524 1525 1527 1528 1530 1531 1532 1533 1533 1534 1535 1535 1536 1536 1536 1537 1537 1538 1538 1538
1503 1504 1500 1496 1494 1491 1488 1487 1487 1488 1488 1489 1490 1491 1492 1495 1498 1499 1500 1502 1504 1507 1509 1511 1513 1515 1517 1519 1522 1524 1525 1527 1528 1529 1531 1532 1533 1533 1534 1534 1535 1535 1536 1536 1536 1537 1537 1537 1537
1503 1503 1498 1494 1493 1492 1490 1489 1489 1489 1488 1489 1490 1491 1492 1494 1496 1498 1499 1501 1503 1506 1508 1510 1513 1515 1517 1519 1521 1523 1525 1526 1528 1529 1530 1531 1532 1533 1533 1534 1535 1535 1535 1535 1536 1536 1536 1536 1536
1501 1500 1497 1495 1493 1493 1491 1490 1489 1489 1489 1489 1490 1491 1492 1494 1496 1497 1499 1501 1503 1506 1508 1510 1512 1515 1517 1519 1521 1523 1524 1526 1527 1529 1530 1531 1532 1532 1533 1533 1534 1534 1534 1535 1535 1535 1535 1535 1536
1499 1498 1497 1495 1494 1493 1492 1491 1490 1490 1490 1489 1489 1490 1491 1493 1495 1496 1498 1501 1503 1505 1507 1510 1512 1514 1516 1519 1521 1522 1524 1525 1527 1528 1529 1530 1531 1531 1532 1533 1533 1533 1534 1534 1534 1534 1534 1534 1535
1498 1497 1496 1494 1494 1493 1493 1492 1491 1490 1489 1488 1488 1489 1490 1492 1494 1497 1499 1501 1503 1505 1507 1510 1512 1514 1516 1518 1520 1522 1523 1525 1526 1527 1528 1529 1530 1531 1531 1532 1532 1532 1533 1533 1533 1533 1533 1533 1533
1496 1495 1494 1493 1492 1492 1493 1492 1491 1489 1488 1488 1487 1488 1490 1492 1493 1496 1498 1500 1503 1505 1507 1509 1512 1514 1516 1518 1520 1521 1523 1524 1526 1527 1528 1528 1529 1529 1530 1531 1532 1532 1532 1532 1532 1532 1532 1532 1532
1495 1495 1493 1491 1490 1491 1492 1492 1490 1489 1488 1488 1488 1489 1491 1492 1494 1496 1498 1500 1502 1505 1506 1509 1512 1514 1516 1518 1519 1521 1522 1524 1525 1526 1527 1528 1528 1529 1529 1530 1530 1531 1531 1531 1531 1531 1531 1531 1531
1493 1494 1495 1490 1488 1489 1494 1493 1488 1487 1488 1488 1489 1490 1491 1493 1495 1496 1498 1500 1502 1504 1507 1509 1511 1513 1515 1517 1518 1520 1522 1523 1524 1525 1526 1527 1527 1528 1528 1529 1529 1529 1529 1530 1529 1529 1529 1529 1529
1494 1495 1493 1489 1486 1488 1491 1490 1487 1486 1487 1488 1489 1490 1492 1493 1496 1497 1499 1500 1502 1505 1507 1509 1511 1512 1514 1516 1518 1520 1521 1522 1523 1524 1525 1526 1526 1526 1527 1527 1528 1528 1528 1528 1528 1527 1527 1527 1527
1497 1493 1490 1488 1486 1487 1489 1488 1486 1486 1486 1488 1489 1491 1492 1493 1496 1498 1499 1501 1503 1505 1507 1509 1511 1513 1514 1516 1518 1519 1521 1522 1523 1523 1524 1525 1525 1526 1526 1526 1526 1527 1527 1527 1526 1526 1526 1526 1525
1493 1492 1492 1488 1485 1486 1486 1486 1485 1485 1486 1488 1489 1491 1492 1494 1496 1497 1499 1502 1503 1506 1507 1509 1511 1513 1515 1516 1517 1519 1520 1521 1522 1523 1524 1524 1525 1525 1525 1525 1525 1525 1525 1525 1525 1524 1524 1524 1524
1492 1493 1492 1488 1485 1485 1485 1484 1484 1484 1486 1487 1489 1491 1493 1494 1496 1498 1500 1502 1503 1505 1507 1509 1511 1512 1514 1516 1517 1519 1520 1521 1522 1522 1523 1524 1524 1524 1524 1524 1524 1524 1524 1523 1524 1523 1522 1522 1522
1492 1494 1493 1492 1486 1483 1484 1486 1484 1484 1485 1487 1489 1491 1492 1494 1496 1498 1500 1502 1503 1505 1507 1509 1510 1511 1513 1515 1517 1518 1519 1520 1521 1521 1522 1522 1523 1523 1523 1523 1522 1523 1522 1522 1522 1522 1521 1521 1521
1495 1492 1491 1491 1492 1491 1486 1494 1484 1483 1485 1486 1488 1490 1492 1494 1496 1498 1500 1502 1503 1505 1507 1509 1510 1511 1512 1514 1515 1516 1517 1518 1519 1520 1521 1521 1521 1522 1522 1521 1521 1521 1521 1521 1520 1520 1519 1519 1519
1496 1492 1491 1490 1491 1491 1487 1491 1487 1481 1485 1486 1487 1489 1491 1493 1495 1497 1499 1501 1503 1504 1506 1507 1508 1510 1512 1513 1514 1515 1516 1517 1519 1519 1519 1519 1520 1520 1520 1520 1520 1519 1519 1519 1518 1518 1517 1517 1517
1493 1491 1488 1489 1493 1497 1489 1492 1490 1484 1483 1483 1486 1488 1490 1493 1495 1497 1499 1501 1502 1504 1505 1506 1508 1509 1511 1513 1514 1515 1516 1516 1517 1517 1517 1518 1518 1518 1518 1518 1517 1517 1517 1516 1516 1516 1515 1515 1515
1495 1498 1500 1499 1500 1497 1488 1491 1491 1481 1479 1481 1484 1487 1489 1492 1494 1496 1498 1499 1501 1503 1504 1506 1507 1509 1510 1512 1512 1513 1514 1515 1515 1515 1515 1516 1516 1516 1516 1515 1515 1515 1515 1514 1513 1513 1513 1513 1512
1496 1497 1507 1508 1503 1497 1491 1494 1488 1480 1480 1481 1483 1486 1489 1492 1494 1495 1497 1498 1499 1501 1503 1505 1506 1508 1509 1510 1511 1512 1512 1513 1513 1513 1513 1514 1514 1514 1514 1513 1513 1512 1512 1511 1511 1510 1510 1510 1509
1498 1498 1497 1502 1498 1499 1491 1485 1483 1480 1482 1483 1485 1487 1489 1490 1492 1494 1495 1497 1498 1500 1502 1503 1505 1506 1507 1508 1509 1509 1510 1510 1511 1511 1511 1511 1511 1511 1511 1511 1510 1510 1509 1509 1508 1508 1507 1507 1506
1499 1498 1499 1502 1502 1501 1489 1486 1488 1484 1483 1483 1484 1486 1488 1489 1491 1492 1494 1495 1497 1498 1500 1502 1503 1504 1505 1505 1506 1507 1507 1508 1508 1508 1508 1508 1508 1508 1508 1507 1507 1507 1506 1506 1505 1505 1504 1504 1503
1501 1499 1498 1498 1498 1503 1500 1495 1479 1480 1480 1482 1483 1485 1487 1488 1490 1491 1492 1494 1495 1497 1498 1499 1501 1501 1502 1503 1503 1504 1504 1504 1505 1505 1505 1505 1505 1505 1504 1504 1504 1503 1503 1502 1502 1502 1501 1500 1500
1498 1498 1499 1506 1502 1497 1501 1499 1478 1478 1479 1481 1483 1484 1486 1487 1489 1490 1491 1492 1494 1495 1496 1497 1498 1499 1499 1500 1500 1501 1501 1501 1501 1502 1502 1502 1501 1501 1501 1501 1500 1500 1499 1499 1498 1498 1497 1497 1496